TimeCST,TemperatureF,Dew PointF,Humidity,Sea Level PressureIn,VisibilityMPH,Wind Direction,Wind SpeedMPH,Gust SpeedMPH,PrecipitationIn,Events,Conditions,WindDirDegrees,DateUTC
12:08 AM,32.0,28.4,87,30.33,10.0,North,3.5,-,N/A,,Overcast,350,2014-01-25 06:08:00
12:43 AM,32.0,28.4,87,30.32,10.0,North,2.3,-,N/A,,Overcast,360,2014-01-25 06:43:00
12:58 AM,32.0,28.4,87,30.33,10.0,NNW,2.3,-,N/A,,Overcast,340,2014-01-25 06:58:00
1:08 AM,32.0,28.4,87,30.32,10.0,North,3.5,-,N/A,,Overcast,350,2014-01-25 07:08:00
1:48 AM,32.0,30.2,93,30.30,10.0,Calm,Calm,-,N/A,,Overcast,0,2014-01-25 07:48:00
1:58 AM,32.5,29.8,90,30.30,10.0,Calm,Calm,-,N/A,,Overcast,0,2014-01-25 07:58:00
2:13 AM,32.0,30.2,93,30.28,10.0,NNW,3.5,-,N/A,,Overcast,340,2014-01-25 08:13:00
2:18 AM,32.0,32.0,100,30.28,10.0,NNW,3.5,-,N/A,,Overcast,330,2014-01-25 08:18:00
2:33 AM,32.0,32.0,100,30.28,10.0,North,3.5,-,N/A,,Overcast,350,2014-01-25 08:33:00
2:48 AM,32.0,32.0,100,30.27,10.0,NNW,3.5,-,N/A,,Overcast,340,2014-01-25 08:48:00
2:53 AM,32.0,32.0,100,30.27,10.0,NNW,3.5,-,N/A,,Overcast,330,2014-01-25 08:53:00
2:58 AM,33.1,30.9,92,30.27,10.0,North,2.3,-,N/A,,Overcast,350,2014-01-25 08:58:00
3:03 AM,32.0,32.0,100,30.26,10.0,North,2.3,-,N/A,,Overcast,350,2014-01-25 09:03:00
3:28 AM,32.0,32.0,100,30.26,10.0,North,2.3,-,N/A,,Overcast,350,2014-01-25 09:28:00
3:58 AM,33.4,32.0,94,30.26,10.0,NW,1.2,-,N/A,,Overcast,320,2014-01-25 09:58:00
4:28 AM,33.8,32.0,93,30.24,10.0,Calm,Calm,-,N/A,,Overcast,0,2014-01-25 10:28:00
4:58 AM,34.2,32.9,95,30.25,10.0,NNW,3.5,-,N/A,,Overcast,340,2014-01-25 10:58:00
5:08 AM,33.8,32.0,93,30.24,10.0,NNW,3.5,-,N/A,,Overcast,340,2014-01-25 11:08:00
5:28 AM,33.8,32.0,93,30.24,10.0,NNW,3.5,-,N/A,,Overcast,330,2014-01-25 11:28:00
5:33 AM,33.8,32.0,93,30.24,10.0,NW,3.5,-,N/A,,Overcast,320,2014-01-25 11:33:00
5:58 AM,34.3,33.4,97,30.25,10.0,NW,2.3,-,N/A,,Overcast,310,2014-01-25 11:58:00
6:03 AM,33.8,32.0,93,30.23,10.0,NW,2.3,-,N/A,,Overcast,320,2014-01-25 12:03:00
6:33 AM,35.6,33.8,93,30.24,10.0,NNW,4.6,-,N/A,,Overcast,340,2014-01-25 12:33:00
6:58 AM,35.1,34.0,96,30.25,10.0,WNW,3.5,-,N/A,,Overcast,300,2014-01-25 12:58:00
7:03 AM,35.6,33.8,93,30.24,10.0,NW,2.3,-,N/A,,Overcast,310,2014-01-25 13:03:00
7:23 AM,35.6,35.6,100,30.23,10.0,Calm,Calm,-,N/A,,Overcast,0,2014-01-25 13:23:00
7:58 AM,37.0,36.3,97,30.24,10.0,Variable,2.3,-,N/A,,Overcast,0,2014-01-25 13:58:00
8:08 AM,37.4,37.4,100,30.22,10.0,West,3.5,-,N/A,,Overcast,260,2014-01-25 14:08:00
8:13 AM,37.4,37.4,100,30.22,10.0,West,5.8,-,N/A,,Overcast,280,2014-01-25 14:13:00
8:48 AM,37.4,35.6,93,30.22,10.0,WNW,5.8,-,N/A,,Overcast,290,2014-01-25 14:48:00
8:58 AM,37.2,36.5,97,30.24,10.0,NW,6.9,-,N/A,,Overcast,310,2014-01-25 14:58:00
9:28 AM,41.0,37.4,87,30.22,10.0,WNW,3.5,-,N/A,,Scattered Clouds,290,2014-01-25 15:28:00
9:58 AM,42.3,36.0,78,30.23,10.0,NW,4.6,-,N/A,,Clear,310,2014-01-25 15:58:00
10:58 AM,48.0,36.0,63,30.20,10.0,West,5.8,-,N/A,,Clear,280,2014-01-25 16:58:00
11:58 AM,50.4,36.0,58,30.16,10.0,SW,8.1,-,N/A,,Clear,220,2014-01-25 17:58:00
12:58 PM,50.0,39.0,66,30.11,10.0,SW,11.5,-,N/A,,Clear,230,2014-01-25 18:58:00
1:58 PM,50.2,39.7,67,30.07,10.0,SW,15.0,-,N/A,,Clear,220,2014-01-25 19:58:00
2:58 PM,50.0,41.0,71,30.05,10.0,WSW,11.5,-,N/A,,Clear,240,2014-01-25 20:58:00
3:58 PM,51.1,40.6,67,30.05,10.0,WSW,12.7,-,N/A,,Clear,240,2014-01-25 21:58:00
4:58 PM,49.5,39.9,70,30.05,10.0,WSW,9.2,-,N/A,,Clear,250,2014-01-25 22:58:00
5:58 PM,48.0,40.5,75,30.06,10.0,WSW,9.2,-,N/A,,Clear,250,2014-01-25 23:58:00
6:58 PM,47.1,39.9,76,30.07,10.0,West,4.6,-,N/A,,Clear,260,2014-01-26 00:58:00
7:58 PM,46.2,38.1,73,30.08,10.0,West,4.6,-,N/A,,Clear,260,2014-01-26 01:58:00
8:58 PM,46.6,37.0,69,30.08,10.0,Variable,2.3,-,N/A,,Clear,0,2014-01-26 02:58:00
9:58 PM,45.0,38.7,79,30.10,10.0,Calm,Calm,-,N/A,,Clear,0,2014-01-26 03:58:00
10:58 PM,44.1,39.4,84,30.09,10.0,Variable,1.2,-,N/A,,Clear,0,2014-01-26 04:58:00
11:58 PM,39.9,35.2,83,30.08,10.0,West,2.3,-,N/A,,Clear,260,2014-01-26 05:58:00